{"data":{"norad_id":55161,"intl_designator":"2023-004X","name":"ONEWEB-0620","alt_names":[],"object_type":"PAYLOAD","status":"ACTIVE","operator":null,"country":"UK","launch_date":"2023-01-10","launch_site_code":"AFETR","launch_vehicle":null,"mission":null,"orbit_class":"UNKNOWN","rcs_meters":null,"size_class":null,"mass_kg":null,"dimensions":null,"purposes":["comms"],"wikipedia_slug":null,"has_3d_model":false,"image_url":null,"decayed_at":null,"tle_current":{"epoch":"2026-09-20T01:14:01.641696Z","epoch_age_seconds":60749,"freshness":"FRESH","line1":"1 55161U 23004X   26263.05140789  .00000216  00000+0  57261-3 0  9992","line2":"2 55161  87.8962   2.2155 0001529 104.1003 256.0295 13.11414808178265","mean_motion":13.11414808,"eccentricity":0.0001529,"inclination_deg":87.8962,"raan_deg":2.2155,"arg_perigee_deg":104.1003,"mean_anomaly_deg":256.0295,"bstar":0.00057261,"rev_number":17826,"period_min":109.80507397168,"perigee_km":1216.5295480615,"apogee_km":1218.8523522486,"semimajor_km":7595.827950155,"source":"CELESTRAK","updated_at":"2026-09-20T09:00:44.754658Z"}}}